Maple Lake, MN

2:54 AM CST on November 18, 2017 (GMT -0600)
Maple Lake Municipal

Weather History for KMGG - November, 2012

Change the Weather History Date:

Friday, November 2, 2012

  Actual Average (KSTC) Record (KSTC)
Temperature  
Mean Temperature 30 °F -  
Max Temperature 36 °F 45 °F 72 °F (1978)
Min Temperature 23 °F 28 °F -1 °F (1951)
Degree Days  
Heating Degree Days 36    
Moisture  
Dew Point 25 °F    
Average Humidity 79    
Maximum Humidity 96    
Minimum Humidity 63    
Precipitation  
Precipitation 0.00 in - - ()
Sea Level Pressure  
Sea Level Pressure 30.13 in    
Wind  
Wind Speed 3 mph (NNE)    
Max Wind Speed 8 mph    
Max Gust Speed -    
Visibility 10 miles    
Events      
Averages and records for this station are not official NWS values.
T = Trace of Precipitation, MM = Missing Value Source: NWS Daily Summary

Daily Weather History Graph

Daily Weather History Graph

Search for Another Location

Airport or City:

Trip Planner

Search our weather history database for the weather conditions in past years. The results will help you decide how hot, cold, wet, or windy it might be!

Date:

Astronomy

Nov. 02, 2012 Rise Set
Actual Time 7:56 AM CDT 6:01 PM CDT
Civil Twilight 7:26 AM CDT 6:32 PM CDT
Nautical Twilight 6:51 AM CDT 7:07 PM CDT
Astronomical Twilight 6:16 AM CDT 7:41 PM CDT
Moon 8:43 PM CDT (11/2) 11:23 AM CDT (11/2)
Length of Visible Light 11h 06m
Length of Day
10h 04m
Waning Gibbous, 87% of the Moon is Illuminated
Nov 2
Waning Gibbous
Nov 6
Last Quarter
Nov 13
New
Nov 20
First Quarter
Nov 28
Full

Hourly Weather History & Observations

Time (CDT) Temp. Windchill Dew Point Humidity Pressure Visibility Wind Dir Wind Speed Gust Speed Precip Events Conditions
12:14 AM 28.4 °F - 23.0 °F 80% 30.07 in 10.0 mi Calm Calm - N/A   Clear
12:34 AM 28.2 °F 24.4 °F 22.8 °F 80% 30.07 in 10.0 mi North 3.5 mph - N/A   Clear
12:55 AM 28.2 °F 23.1 °F 23.0 °F 81% 30.08 in 10.0 mi North 4.6 mph - N/A   Clear
1:14 AM 27.5 °F 23.6 °F 22.8 °F 83% 30.08 in 10.0 mi North 3.5 mph - N/A   Clear
1:34 AM 26.8 °F 22.8 °F 22.8 °F 85% 30.09 in 10.0 mi North 3.5 mph - N/A   Clear
1:55 AM 27.3 °F 22.0 °F 23.0 °F 84% 30.10 in 10.0 mi North 4.6 mph - N/A   Clear
2:14 AM 26.6 °F - 22.6 °F 85% 30.10 in 10.0 mi Calm Calm - N/A   Clear
2:34 AM 27.0 °F - 23.0 °F 85% 30.10 in 10.0 mi Calm Calm - N/A   Clear
2:55 AM 25.7 °F 21.5 °F 22.6 °F 88% 30.10 in 10.0 mi NNE 3.5 mph - N/A   Clear
3:14 AM 24.8 °F - 23.0 °F 93% 30.10 in 10.0 mi Calm Calm - N/A   Clear
3:34 AM 25.7 °F - 22.8 °F 89% 30.10 in 10.0 mi Calm Calm - N/A   Clear
3:54 AM 25.7 °F 21.5 °F 22.8 °F 89% 30.10 in 10.0 mi NNE 3.5 mph - N/A   Clear
4:14 AM 25.7 °F - 22.8 °F 89% 30.10 in 10.0 mi Calm Calm - N/A   Clear
4:34 AM 23.9 °F 19.5 °F 21.9 °F 92% 30.10 in 10.0 mi North 3.5 mph - N/A   Clear
4:55 AM 24.6 °F 20.3 °F 22.5 °F 91% 30.11 in 10.0 mi North 3.5 mph - N/A   Clear
5:14 AM 26.1 °F 21.9 °F 23.4 °F 90% 30.10 in 10.0 mi North 3.5 mph - N/A   Clear
5:35 AM 24.8 °F 19.1 °F 22.8 °F 92% 30.10 in 10.0 mi North 4.6 mph - N/A   Clear
5:54 AM 24.8 °F 20.5 °F 22.5 °F 91% 30.11 in 10.0 mi North 3.5 mph - N/A   Clear
6:14 AM 24.4 °F 20.1 °F 22.5 °F 92% 30.11 in 10.0 mi North 3.5 mph - N/A   Clear
6:34 AM 25.0 °F - 23.4 °F 94% 30.11 in 10.0 mi Calm Calm - N/A   Clear
6:55 AM 25.3 °F 21.1 °F 23.2 °F 91% 30.11 in 10.0 mi North 3.5 mph - N/A   Clear
7:15 AM 24.8 °F 19.1 °F 23.0 °F 93% 30.12 in 10.0 mi North 4.6 mph - N/A   Clear
7:35 AM 24.4 °F 17.5 °F 22.8 °F 94% 30.12 in 10.0 mi NNE 5.8 mph - N/A   Clear
7:55 AM 23.9 °F 18.0 °F 22.8 °F 96% 30.13 in 10.0 mi North 4.6 mph - N/A   Clear
8:14 AM 24.8 °F 20.5 °F 23.7 °F 96% 30.13 in 10.0 mi North 3.5 mph - N/A   Clear
8:54 AM 27.7 °F 20.4 °F 25.5 °F 92% 30.14 in 10.0 mi NE 6.9 mph - N/A   Clear
9:14 AM 29.3 °F 21.5 °F 26.2 °F 88% 30.14 in 10.0 mi NE 8.1 mph - N/A   Clear
9:34 AM 30.0 °F 22.4 °F 26.2 °F 86% 30.14 in 10.0 mi ENE 8.1 mph - N/A   Clear
9:54 AM 29.8 °F 22.2 °F 25.7 °F 85% 30.15 in 10.0 mi ENE 8.1 mph - N/A   Scattered Clouds
10:14 AM 30.2 °F 23.4 °F 26.6 °F 86% 30.15 in 10.0 mi ENE 6.9 mph - N/A   Mostly Cloudy
10:34 AM 30.9 °F 24.3 °F 26.2 °F 83% 30.16 in 10.0 mi ENE 6.9 mph - N/A   Overcast
10:55 AM 31.1 °F 25.4 °F 26.4 °F 83% 30.15 in 10.0 mi East 5.8 mph - N/A   Mostly Cloudy
11:14 AM 31.1 °F 26.4 °F 26.4 °F 83% 30.16 in 10.0 mi East 4.6 mph - N/A   Mostly Cloudy
11:34 AM 31.8 °F - 26.4 °F 80% 30.17 in 10.0 mi Calm Calm - N/A   Overcast
11:55 AM 32.2 °F 28.9 °F 26.6 °F 80% 30.17 in 10.0 mi East 3.5 mph - N/A   Scattered Clouds
12:14 PM 32.7 °F 28.3 °F 27.0 °F 79% 30.17 in 10.0 mi ENE 4.6 mph - N/A   Clear
12:34 PM 32.9 °F 29.8 °F 27.3 °F 80% 30.17 in 10.0 mi ENE 3.5 mph - N/A   Clear
12:55 PM 33.8 °F 29.6 °F 27.5 °F 78% 30.16 in 10.0 mi ENE 4.6 mph - N/A   Clear
1:14 PM 34.0 °F - 27.5 °F 77% 30.16 in 10.0 mi Calm Calm - N/A   Scattered Clouds
1:34 PM 34.7 °F - 27.5 °F 75% 30.16 in 10.0 mi Calm Calm - N/A   Scattered Clouds
1:55 PM 34.5 °F - 27.3 °F 75% 30.15 in 10.0 mi Calm Calm - N/A   Clear
2:14 PM 34.7 °F - 27.1 °F 74% 30.15 in 10.0 mi Calm Calm - N/A   Clear
2:34 PM 35.1 °F - 27.3 °F 73% 30.14 in 10.0 mi Calm Calm - N/A   Clear
2:55 PM 35.4 °F - 27.3 °F 72% 30.14 in 10.0 mi Calm Calm - N/A   Scattered Clouds
3:14 PM 35.6 °F - 27.3 °F 72% 30.13 in 10.0 mi Calm Calm - N/A   Mostly Cloudy
3:35 PM 35.6 °F 30.7 °F 27.5 °F 72% 30.11 in 10.0 mi NE 5.8 mph - N/A   Overcast
3:54 PM 35.8 °F 30.9 °F 26.8 °F 70% 30.12 in 10.0 mi NE 5.8 mph - N/A   Overcast
4:14 PM 36.5 °F 32.7 °F 26.6 °F 67% 30.13 in 10.0 mi NNE 4.6 mph - N/A   Mostly Cloudy
4:35 PM 36.0 °F - 26.4 °F 68% 30.13 in 10.0 mi Calm Calm - N/A   Mostly Cloudy
4:54 PM 36.1 °F 32.3 °F 26.1 °F 67% 30.13 in 10.0 mi NNE 4.6 mph - N/A   Mostly Cloudy
5:14 PM 36.1 °F - 24.8 °F 63% 30.14 in 10.0 mi Calm Calm - N/A   Overcast
5:35 PM 35.8 °F - 24.6 °F 64% 30.14 in 10.0 mi Calm Calm - N/A   Overcast
5:54 PM 35.8 °F - 25.3 °F 66% 30.14 in 10.0 mi Calm Calm - N/A   Overcast
6:15 PM 35.6 °F - 26.1 °F 68% 30.13 in 10.0 mi Calm Calm - N/A   Overcast
6:34 PM 35.4 °F 31.5 °F 25.7 °F 68% 30.12 in 10.0 mi NE 4.6 mph - N/A   Overcast
6:54 PM 35.2 °F - 26.2 °F 70% 30.13 in 10.0 mi Calm Calm - N/A   Overcast
7:34 PM 35.2 °F 32.4 °F 25.5 °F 68% 30.14 in 10.0 mi NE 3.5 mph - N/A   Overcast
7:54 PM 35.6 °F 32.8 °F 25.7 °F 67% 30.14 in 10.0 mi NE 3.5 mph - N/A   Overcast
8:14 PM 35.6 °F - 25.5 °F 67% 30.14 in 10.0 mi Calm Calm - N/A   Overcast
8:34 PM 35.2 °F - 26.1 °F 69% 30.15 in 10.0 mi Calm Calm - N/A   Overcast
8:54 PM 34.9 °F - 26.4 °F 71% 30.16 in 10.0 mi Calm Calm - N/A   Overcast
9:34 PM 34.5 °F - 26.1 °F 71% 30.17 in 10.0 mi Calm Calm - N/A   Overcast
9:54 PM 35.1 °F - 25.7 °F 69% 30.16 in 10.0 mi Calm Calm - N/A   Overcast
10:14 PM 34.9 °F - 26.2 °F 71% 30.17 in 10.0 mi Calm Calm - N/A   Overcast
10:35 PM 34.7 °F - 25.9 °F 70% 30.17 in 10.0 mi Calm Calm - N/A   Overcast
10:54 PM 34.7 °F - 26.6 °F 72% 30.17 in 10.0 mi Calm Calm - N/A   Overcast
11:14 PM 34.0 °F 29.8 °F 27.3 °F 77% 30.16 in 10.0 mi NE 4.6 mph - N/A   Overcast
11:35 PM 34.3 °F - 26.6 °F 73% 30.17 in 10.0 mi Calm Calm - N/A   Overcast
11:54 PM 34.7 °F - 26.1 °F 71% 30.17 in 10.0 mi Calm Calm - N/A   Overcast